Hourly Weather Karaganda

Today, 9 May, Sunday

Time Temperature Precipitation Wind Pressure Humidity
00:00 +15°C° 0.1 mm 6 mps 709 mmHg 61%
01:00 +15°C° 0.1 mm 6 mps 709 mmHg 55%
02:00 +16°C° 0.1 mm 6 mps 708 mmHg 49%
03:00 +15°C° 0 mm 5 mps 708 mmHg 51%
04:00 +14°C° 0 mm 5 mps 708 mmHg 53%
05:00 +14°C° 0 mm 4 mps 708 mmHg 55%
06:00 +15°C° 0.3 mm 4 mps 708 mmHg 51%
07:00 +17°C° 0.3 mm 5 mps 708 mmHg 48%
08:00 +19°C° 0.3 mm 5 mps 708 mmHg 44%
09:00 +19°C° 0.2 mm 4 mps 708 mmHg 47%
10:00 +19°C° 0.2 mm 4 mps 708 mmHg 49%
11:00 +19°C° 0.2 mm 3 mps 708 mmHg 51%
12:00 +18°C° 1.3 mm 4 mps 708 mmHg 63%
13:00 +15°C° 1.3 mm 4 mps 707 mmHg 75%
14:00 +14°C° 1.3 mm 4 mps 707 mmHg 86%
15:00 +14°C° 2 mm 5 mps 706 mmHg 87%
16:00 +14°C° 2 mm 5 mps 706 mmHg 87%
17:00 +14°C° 2 mm 5 mps 706 mmHg 87%
18:00 +13°C° 0.3 mm 5 mps 706 mmHg 89%
19:00 +13°C° 0.3 mm 5 mps 706 mmHg 90%
20:00 +13°C° 0.3 mm 4 mps 706 mmHg 91%
21:00 +12°C° 0.1 mm 4 mps 705 mmHg 92%
22:00 +11°C° 0.1 mm 3 mps 705 mmHg 92%
23:00 +12°C° 0.1 mm 2 mps 705 mmHg 93%

Tomorrow, 10 May, Monday

Time Temperature Precipitation Wind Pressure Humidity
00:00 +11°C° 0.3 mm 3 mps 705 mmHg 92%
01:00 +11°C° 0.3 mm 3 mps 705 mmHg 91%
02:00 +11°C° 0.3 mm 3 mps 705 mmHg 90%
03:00 +11°C° 0 mm 3 mps 705 mmHg 90%
04:00 +10°C° 0 mm 3 mps 705 mmHg 91%
05:00 +10°C° 0 mm 2 mps 705 mmHg 91%
06:00 +11°C° 0 mm 3 mps 705 mmHg 88%
07:00 +12°C° 0 mm 3 mps 705 mmHg 86%
08:00 +13°C° 0 mm 4 mps 706 mmHg 83%
09:00 +13°C° 0.2 mm 4 mps 706 mmHg 81%
10:00 +13°C° 0.2 mm 4 mps 706 mmHg 80%
11:00 +13°C° 0.2 mm 5 mps 706 mmHg 78%
12:00 +14°C° 0.1 mm 4 mps 706 mmHg 75%
13:00 +14°C° 0.1 mm 4 mps 707 mmHg 72%
14:00 +15°C° 0.1 mm 4 mps 707 mmHg 69%
15:00 +15°C° 0.1 mm 4 mps 707 mmHg 67%
16:00 +16°C° 0.1 mm 3 mps 707 mmHg 66%
17:00 +16°C° 0.1 mm 3 mps 707 mmHg 64%
18:00 +14°C° 0.2 mm 4 mps 708 mmHg 68%
19:00 +13°C° 0.2 mm 4 mps 708 mmHg 73%
20:00 +12°C° 0.2 mm 5 mps 708 mmHg 77%
21:00 +11°C° 0 mm 6 mps 708 mmHg 76%
22:00 +10°C° 0 mm 6 mps 708 mmHg 76%
23:00 +10°C° 0 mm 7 mps 709 mmHg 76%

Day after tomorrow, 11 May, Tuesday

Time Temperature Precipitation Wind Pressure Humidity
00:00 +9°C° 0 mm 7 mps 709 mmHg 71%
01:00 +9°C° 0 mm 6 mps 709 mmHg 67%
02:00 +9°C° 0 mm 6 mps 709 mmHg 62%
03:00 +9°C° 0 mm 5 mps 710 mmHg 61%
04:00 +8°C° 0 mm 5 mps 710 mmHg 60%
05:00 +8°C° 0 mm 5 mps 710 mmHg 59%
06:00 +9°C° 0 mm 6 mps 711 mmHg 56%
07:00 +10°C° 0 mm 6 mps 711 mmHg 52%
08:00 +10°C° 0 mm 7 mps 712 mmHg 48%
09:00 +12°C° 0 mm 7 mps 712 mmHg 44%
10:00 +14°C° 0 mm 7 mps 712 mmHg 40%
11:00 +15°C° 0 mm 7 mps 712 mmHg 36%
12:00 +15°C° 0 mm 6 mps 713 mmHg 35%
13:00 +16°C° 0 mm 6 mps 713 mmHg 35%
14:00 +16°C° 0 mm 6 mps 713 mmHg 34%
15:00 +16°C° 0 mm 6 mps 713 mmHg 34%
16:00 +16°C° 0 mm 7 mps 713 mmHg 35%
17:00 +15°C° 0 mm 7 mps 714 mmHg 35%
18:00 +14°C° 0 mm 7 mps 714 mmHg 40%
19:00 +11°C° 0 mm 7 mps 714 mmHg 45%
20:00 +10°C° 0 mm 7 mps 715 mmHg 50%
21:00 +9°C° 0 mm 6 mps 715 mmHg 53%
22:00 +8°C° 0 mm 5 mps 715 mmHg 55%
23:00 +8°C° 0 mm 4 mps 715 mmHg 58%

12 May, Wednesday

Time Temperature Precipitation Wind Pressure Humidity
00:00 +8°C° 0 mm 3 mps 715 mmHg 59%
01:00 +7°C° 0 mm 3 mps 715 mmHg 61%
02:00 +7°C° 0 mm 3 mps 715 mmHg 62%
03:00 +7°C° 0 mm 3 mps 716 mmHg 63%
04:00 +5°C° 0 mm 3 mps 716 mmHg 64%
05:00 +6°C° 0 mm 2 mps 716 mmHg 65%
06:00 +8°C° 0 mm 3 mps 717 mmHg 59%
07:00 +10°C° 0 mm 3 mps 717 mmHg 54%
08:00 +12°C° 0 mm 3 mps 717 mmHg 49%
09:00 +13°C° 0 mm 4 mps 717 mmHg 45%
10:00 +14°C° 0 mm 4 mps 717 mmHg 41%
11:00 +15°C° 0 mm 4 mps 717 mmHg 37%
12:00 +15°C° 0 mm 4 mps 717 mmHg 36%
13:00 +17°C° 0 mm 4 mps 717 mmHg 35%
14:00 +17°C° 0 mm 4 mps 717 mmHg 34%
15:00 +17°C° 0 mm 4 mps 717 mmHg 34%
16:00 +17°C° 0 mm 4 mps 717 mmHg 35%
17:00 +17°C° 0 mm 4 mps 717 mmHg 35%
18:00 +16°C° 0 mm 3 mps 717 mmHg 40%
19:00 +14°C° 0 mm 2 mps 716 mmHg 45%
20:00 +13°C° 0 mm 1 mps 716 mmHg 49%
21:00 +12°C° 0 mm 1 mps 716 mmHg 51%
22:00 +11°C° 0 mm 1 mps 716 mmHg 53%
23:00 +11°C° 0 mm 1 mps 715 mmHg 55%

13 May, Thursday

Time Temperature Precipitation Wind Pressure Humidity
00:00 +11°C° 0 mm 1 mps 715 mmHg 55%
01:00 +11°C° 0 mm 1 mps 715 mmHg 55%
02:00 +11°C° 0 mm 1 mps 714 mmHg 55%
03:00 +11°C° 0 mm 1 mps 714 mmHg 56%
04:00 +11°C° 0 mm 1 mps 714 mmHg 56%
05:00 +11°C° 0 mm 1 mps 714 mmHg 56%
06:00 +12°C° 0 mm 1 mps 714 mmHg 52%
07:00 +13°C° 0 mm 1 mps 714 mmHg 48%
08:00 +15°C° 0 mm 1 mps 714 mmHg 44%
09:00 +16°C° 0 mm 1 mps 714 mmHg 41%
10:00 +16°C° 0 mm 1 mps 714 mmHg 38%
11:00 +18°C° 0 mm 1 mps 714 mmHg 36%
12:00 +19°C° 0 mm 1 mps 714 mmHg 35%
13:00 +18°C° 0 mm 2 mps 714 mmHg 34%
14:00 +19°C° 0 mm 2 mps 713 mmHg 33%
15:00 +18°C° 0 mm 3 mps 713 mmHg 38%
16:00 +18°C° 0 mm 4 mps 713 mmHg 44%
17:00 +16°C° 0 mm 5 mps 714 mmHg 49%
18:00 +15°C° 0 mm 5 mps 714 mmHg 57%
19:00 +13°C° 0 mm 5 mps 714 mmHg 65%
20:00 +12°C° 0 mm 5 mps 714 mmHg 72%
21:00 +11°C° 0 mm 4 mps 715 mmHg 75%
22:00 +11°C° 0 mm 4 mps 715 mmHg 78%
23:00 +10°C° 0 mm 3 mps 715 mmHg 81%

14 May, Friday

Time Temperature Precipitation Wind Pressure Humidity
00:00 +10°C° 0 mm 3 mps 715 mmHg 82%
01:00 +9°C° 0 mm 3 mps 715 mmHg 82%
02:00 +9°C° 0 mm 3 mps 715 mmHg 83%
03:00 +9°C° 0 mm 3 mps 716 mmHg 83%
04:00 +9°C° 0 mm 3 mps 716 mmHg 83%
05:00 +9°C° 0 mm 3 mps 716 mmHg 83%
06:00 +10°C° 0 mm 3 mps 716 mmHg 75%
07:00 +12°C° 0 mm 3 mps 717 mmHg 67%
08:00 +14°C° 0 mm 4 mps 717 mmHg 59%
09:00 +16°C° 0 mm 3 mps 717 mmHg 54%
10:00 +18°C° 0 mm 3 mps 718 mmHg 49%
11:00 +19°C° 0 mm 3 mps 718 mmHg 44%
12:00 +19°C° 0 mm 3 mps 718 mmHg 42%
13:00 +20°C° 0 mm 3 mps 718 mmHg 39%
14:00 +21°C° 0 mm 4 mps 717 mmHg 37%
15:00 +21°C° 0 mm 4 mps 717 mmHg 36%
16:00 +21°C° 0 mm 4 mps 717 mmHg 36%
17:00 +21°C° 0 mm 4 mps 717 mmHg 35%
18:00 +19°C° 0 mm 4 mps 717 mmHg 42%
19:00 +17°C° 0 mm 4 mps 717 mmHg 48%
20:00 +15°C° 0 mm 4 mps 717 mmHg 54%
21:00 +14°C° 0 mm 3 mps 717 mmHg 57%
22:00 +14°C° 0 mm 3 mps 717 mmHg 59%
23:00 +13°C° 0 mm 3 mps 717 mmHg 61%
Show more